Time,TemperatureF,DewpointF,PressureIn,WindDirection,WindDirectionDegrees,WindSpeedMPH,WindSpeedGustMPH,Humidity,HourlyPrecipIn,Conditions,Clouds,dailyrainin,SoftwareType,DateUTC
2013-01-16 00:00:00,56.5,44.8,30.15,WNW,293,8.3,11.9,65,0.00,,,0.00,WUHU216HW,2013-01-15 21:00:00,
2013-01-16 00:05:00,56.3,44.7,30.15,WSW,248,6.0,9.8,65,0.00,,,0.00,WUHU216HW,2013-01-15 21:05:00,
2013-01-16 00:10:00,56.3,44.3,30.15,NW,315,8.5,9.4,64,0.00,,,0.00,WUHU216HW,2013-01-15 21:10:00,
2013-01-16 00:15:00,56.2,44.1,30.15,NW,315,9.2,9.4,64,0.00,,,0.00,WUHU216HW,2013-01-15 21:15:00,
2013-01-16 00:20:00,56.2,44.1,30.15,West,270,8.5,9.4,64,0.00,,,0.00,WUHU216HW,2013-01-15 21:20:00,
2013-01-16 00:25:00,56.0,43.9,30.15,NW,315,8.1,9.4,64,0.00,,,0.00,WUHU216HW,2013-01-15 21:25:00,
2013-01-16 00:30:00,56.0,43.9,30.15,WNW,293,9.8,9.8,64,0.00,,,0.00,WUHU216HW,2013-01-15 21:30:00,
2013-01-16 00:35:00,56.0,43.6,30.15,West,270,6.9,10.7,63,0.00,,,0.00,WUHU216HW,2013-01-15 21:35:00,
2013-01-16 00:40:00,56.0,43.6,30.15,NW,315,7.4,11.6,63,0.00,,,0.00,WUHU216HW,2013-01-15 21:40:00,
2013-01-16 00:45:00,55.8,42.9,30.15,West,270,6.9,11.6,62,0.00,,,0.00,WUHU216HW,2013-01-15 21:45:00,
2013-01-16 00:50:00,56.0,42.8,30.15,West,270,9.2,13.4,61,0.00,,,0.00,WUHU216HW,2013-01-15 21:50:00,
2013-01-16 00:55:00,56.0,42.3,30.15,NNW,338,8.7,13.4,60,0.00,,,0.00,WUHU216HW,2013-01-15 21:55:00,
2013-01-16 01:00:00,56.0,41.9,30.15,WNW,293,6.0,12.1,59,0.00,,,0.00,WUHU216HW,2013-01-15 22:00:00,
2013-01-16 01:05:00,56.0,41.4,30.15,NW,315,10.3,12.3,58,0.00,,,0.00,WUHU216HW,2013-01-15 22:05:00,
2013-01-16 01:10:00,56.2,41.6,30.15,NW,315,7.6,13.4,58,0.00,,,0.00,WUHU216HW,2013-01-15 22:10:00,
2013-01-16 01:15:00,56.2,41.0,30.15,WNW,293,7.6,13.4,57,0.00,,,0.00,WUHU216HW,2013-01-15 22:15:00,
2013-01-16 01:20:00,56.2,40.6,30.15,West,270,10.1,14.1,56,0.00,,,0.00,WUHU216HW,2013-01-15 22:20:00,
2013-01-16 01:25:00,56.2,40.1,30.15,NW,315,8.9,14.1,55,0.00,,,0.00,WUHU216HW,2013-01-15 22:25:00,
2013-01-16 01:30:00,56.2,39.7,30.15,NNW,338,6.5,13.9,54,0.00,,,0.00,WUHU216HW,2013-01-15 22:30:00,
2013-01-16 01:35:00,56.2,39.3,30.15,NW,315,8.5,16.1,53,0.00,,,0.00,WUHU216HW,2013-01-15 22:35:00,
2013-01-16 01:40:00,56.2,38.7,30.15,WNW,293,9.2,16.1,52,0.00,,,0.00,WUHU216HW,2013-01-15 22:40:00,
2013-01-16 01:45:00,56.2,38.7,30.15,West,270,8.5,13.9,52,0.00,,,0.00,WUHU216HW,2013-01-15 22:45:00,
2013-01-16 01:50:00,56.0,38.1,30.15,West,270,10.5,13.9,51,0.00,,,0.00,WUHU216HW,2013-01-15 22:50:00,
2013-01-16 01:55:00,56.0,38.1,30.15,WNW,293,8.9,12.8,51,0.00,,,0.00,WUHU216HW,2013-01-15 22:55:00,
2013-01-16 02:00:00,56.0,38.1,30.15,West,270,11.4,12.8,51,0.00,,,0.00,WUHU216HW,2013-01-15 23:00:00,
2013-01-16 02:05:00,56.0,37.6,30.15,West,270,9.8,14.3,50,0.00,,,0.00,WUHU216HW,2013-01-15 23:05:00,
2013-01-16 02:10:00,56.0,37.6,30.15,West,270,14.3,15.4,50,0.00,,,0.00,WUHU216HW,2013-01-15 23:10:00,
2013-01-16 02:15:00,55.8,37.4,30.15,WNW,293,13.9,15.7,50,0.00,,,0.00,WUHU216HW,2013-01-15 23:15:00,
2013-01-16 02:20:00,55.8,37.4,30.15,West,270,16.1,16.1,50,0.00,,,0.00,WUHU216HW,2013-01-15 23:20:00,
2013-01-16 02:25:00,55.8,37.4,30.14,West,270,11.2,16.1,50,0.00,,,0.00,WUHU216HW,2013-01-15 23:25:00,
2013-01-16 02:30:00,55.6,37.3,30.14,North,0,10.7,16.1,50,0.00,,,0.00,WUHU216HW,2013-01-15 23:30:00,
2013-01-16 02:35:00,55.6,37.3,30.14,WNW,293,12.5,16.1,50,0.00,,,0.00,WUHU216HW,2013-01-15 23:35:00,
2013-01-16 02:40:00,55.6,37.3,30.14,NW,315,11.4,15.7,50,0.00,,,0.00,WUHU216HW,2013-01-15 23:40:00,
2013-01-16 02:45:00,55.4,37.5,30.14,NW,315,13.0,17.2,51,0.00,,,0.00,WUHU216HW,2013-01-15 23:45:00,
2013-01-16 02:50:00,55.4,37.5,30.14,West,270,11.4,17.2,51,0.00,,,0.00,WUHU216HW,2013-01-15 23:50:00,
2013-01-16 02:55:00,55.3,37.9,30.14,WNW,293,8.7,14.3,52,0.00,,,0.00,WUHU216HW,2013-01-15 23:55:00,
2013-01-16 03:00:00,55.3,37.9,30.14,WNW,293,10.5,14.1,52,0.00,,,0.00,WUHU216HW,2013-01-16 00:00:00,
2013-01-16 03:05:00,55.1,37.7,30.14,WNW,293,11.6,13.9,52,0.00,,,0.00,WUHU216HW,2013-01-16 00:05:00,
2013-01-16 03:10:00,55.1,38.2,30.14,NW,315,11.0,14.3,53,0.00,,,0.00,WUHU216HW,2013-01-16 00:10:00,
2013-01-16 03:15:00,55.1,38.2,30.14,West,270,7.4,16.1,53,0.00,,,0.00,WUHU216HW,2013-01-16 00:15:00,
2013-01-16 03:20:00,55.1,38.2,30.14,NW,315,12.8,16.1,53,0.00,,,0.00,WUHU216HW,2013-01-16 00:20:00,
2013-01-16 03:25:00,55.1,38.2,30.14,NW,315,6.3,15.0,53,0.00,,,0.00,WUHU216HW,2013-01-16 00:25:00,
2013-01-16 03:30:00,55.1,38.2,30.14,WNW,293,9.2,15.0,53,0.00,,,0.00,WUHU216HW,2013-01-16 00:30:00,
2013-01-16 03:35:00,54.9,38.4,30.14,WNW,293,12.1,13.4,54,0.00,,,0.00,WUHU216HW,2013-01-16 00:35:00,
2013-01-16 03:40:00,54.9,38.4,30.14,West,270,11.4,15.0,54,0.00,,,0.00,WUHU216HW,2013-01-16 00:40:00,
2013-01-16 03:45:00,54.7,38.8,30.14,NW,315,9.2,15.0,55,0.00,,,0.00,WUHU216HW,2013-01-16 00:45:00,
2013-01-16 03:50:00,54.7,38.8,30.14,WNW,293,9.4,13.0,55,0.00,,,0.00,WUHU216HW,2013-01-16 00:50:00,
2013-01-16 03:55:00,54.7,39.2,30.14,West,270,12.1,14.5,56,0.00,,,0.00,WUHU216HW,2013-01-16 00:55:00,
2013-01-16 04:00:00,54.5,39.1,30.14,WNW,293,9.2,15.9,56,0.00,,,0.00,WUHU216HW,2013-01-16 01:00:00,
2013-01-16 04:05:00,54.5,39.5,30.14,West,270,11.4,15.9,57,0.00,,,0.00,WUHU216HW,2013-01-16 01:05:00,
2013-01-16 04:10:00,54.5,39.5,30.14,West,270,8.5,12.1,57,0.00,,,0.00,WUHU216HW,2013-01-16 01:10:00,
2013-01-16 04:15:00,54.4,39.9,30.14,WNW,293,9.4,11.4,58,0.00,,,0.00,WUHU216HW,2013-01-16 01:15:00,
2013-01-16 04:20:00,54.4,40.3,30.14,WNW,293,13.4,13.4,59,0.00,,,0.00,WUHU216HW,2013-01-16 01:20:00,
2013-01-16 04:25:00,54.5,40.5,30.14,WNW,293,11.4,14.1,59,0.00,,,0.00,WUHU216HW,2013-01-16 01:25:00,
2013-01-16 04:30:00,54.4,40.3,30.14,WNW,293,11.4,14.5,59,0.00,,,0.00,WUHU216HW,2013-01-16 01:30:00,
2013-01-16 04:35:00,54.4,40.8,30.15,NNW,338,9.8,14.5,60,0.00,,,0.00,WUHU216HW,2013-01-16 01:35:00,
2013-01-16 04:40:00,54.4,40.8,30.14,WNW,293,9.2,14.3,60,0.00,,,0.00,WUHU216HW,2013-01-16 01:40:00,
2013-01-16 04:45:00,54.4,41.2,30.14,NW,315,9.8,13.2,61,0.00,,,0.00,WUHU216HW,2013-01-16 01:45:00,
2013-01-16 04:50:00,54.4,41.2,30.14,WNW,293,8.7,11.9,61,0.00,,,0.00,WUHU216HW,2013-01-16 01:50:00,
2013-01-16 04:55:00,54.4,41.6,30.15,NW,315,7.8,13.2,62,0.00,,,0.00,WUHU216HW,2013-01-16 01:55:00,
2013-01-16 05:00:00,54.2,41.4,30.15,WNW,293,12.8,13.2,62,0.00,,,0.00,WUHU216HW,2013-01-16 02:00:00,
2013-01-16 05:05:00,54.2,41.9,30.15,NW,315,9.2,13.2,63,0.00,,,0.00,WUHU216HW,2013-01-16 02:05:00,
2013-01-16 05:10:00,54.2,41.9,30.15,West,270,13.2,13.2,63,0.00,,,0.00,WUHU216HW,2013-01-16 02:10:00,
2013-01-16 05:15:00,54.2,41.9,30.15,NW,315,12.5,13.4,63,0.00,,,0.00,WUHU216HW,2013-01-16 02:15:00,
2013-01-16 05:20:00,54.2,41.9,30.15,West,270,14.3,14.3,63,0.00,,,0.00,WUHU216HW,2013-01-16 02:20:00,
2013-01-16 05:25:00,54.2,42.2,30.16,West,270,14.3,14.3,64,0.00,,,0.00,WUHU216HW,2013-01-16 02:25:00,
2013-01-16 05:30:00,54.2,42.2,30.16,WNW,293,12.1,14.8,64,0.00,,,0.00,WUHU216HW,2013-01-16 02:30:00,
2013-01-16 05:35:00,54.2,42.2,30.16,WNW,293,10.7,15.7,64,0.00,,,0.00,WUHU216HW,2013-01-16 02:35:00,
2013-01-16 05:40:00,54.0,42.0,30.16,WNW,293,10.5,15.7,64,0.00,,,0.00,WUHU216HW,2013-01-16 02:40:00,
2013-01-16 05:45:00,54.0,42.0,30.16,NW,315,7.6,15.7,64,0.00,,,0.00,WUHU216HW,2013-01-16 02:45:00,
2013-01-16 05:50:00,54.0,42.0,30.16,NW,315,11.0,15.7,64,0.00,,,0.00,WUHU216HW,2013-01-16 02:50:00,
2013-01-16 05:55:00,54.0,42.0,30.17,West,270,6.3,14.8,64,0.00,,,0.00,WUHU216HW,2013-01-16 02:55:00,
2013-01-16 06:00:00,54.0,42.0,30.17,West,270,8.5,14.8,64,0.00,,,0.00,WUHU216HW,2013-01-16 03:00:00,
2013-01-16 06:05:00,53.8,41.9,30.17,WNW,293,8.5,14.1,64,0.00,,,0.00,WUHU216HW,2013-01-16 03:05:00,
2013-01-16 06:10:00,53.8,42.3,30.17,NW,315,9.8,14.1,65,0.00,,,0.00,WUHU216HW,2013-01-16 03:10:00,
2013-01-16 06:15:00,53.8,42.3,30.17,West,270,8.9,13.6,65,0.00,,,0.00,WUHU216HW,2013-01-16 03:15:00,
2013-01-16 06:20:00,53.8,42.3,30.17,NNW,338,12.5,15.7,65,0.00,,,0.00,WUHU216HW,2013-01-16 03:20:00,
2013-01-16 06:25:00,54.0,42.5,30.17,NW,315,9.2,15.7,65,0.00,,,0.00,WUHU216HW,2013-01-16 03:25:00,
2013-01-16 06:31:00,53.8,42.3,30.18,WNW,293,9.6,14.5,65,0.00,,,0.00,WUHU216HW,2013-01-16 03:31:00,
2013-01-16 06:36:00,53.8,42.3,30.18,WNW,293,10.1,15.0,65,0.00,,,0.00,WUHU216HW,2013-01-16 03:36:00,
2013-01-16 06:41:00,53.8,42.3,30.18,WNW,293,12.8,15.0,65,0.00,,,0.00,WUHU216HW,2013-01-16 03:41:00,
2013-01-16 06:46:00,53.8,42.3,30.18,NW,315,12.1,14.5,65,0.00,,,0.00,WUHU216HW,2013-01-16 03:46:00,
2013-01-16 06:51:00,53.8,42.3,30.18,WNW,293,11.6,15.4,65,0.00,,,0.00,WUHU216HW,2013-01-16 03:51:00,
2013-01-16 06:56:00,54.0,42.5,30.19,NNW,338,12.3,15.4,65,0.00,,,0.00,WUHU216HW,2013-01-16 03:56:00,
2013-01-16 07:01:00,54.0,42.5,30.19,West,270,11.4,13.4,65,0.00,,,0.00,WUHU216HW,2013-01-16 04:01:00,
2013-01-16 07:06:00,54.0,42.5,30.19,West,270,12.8,15.9,65,0.00,,,0.00,WUHU216HW,2013-01-16 04:06:00,
2013-01-16 07:10:00,54.2,42.2,30.19,WNW,293,11.4,15.9,64,0.00,,,0.00,WUHU216HW,2013-01-16 04:10:00,
2013-01-16 07:16:00,54.2,42.2,30.20,West,270,13.9,15.9,64,0.00,,,0.00,WUHU216HW,2013-01-16 04:16:00,
2013-01-16 07:20:00,54.4,42.4,30.20,NW,315,15.0,17.9,64,0.00,,,0.00,WUHU216HW,2013-01-16 04:20:00,
2013-01-16 07:25:00,54.4,42.4,30.20,WNW,293,14.8,17.9,64,0.00,,,0.00,WUHU216HW,2013-01-16 04:25:00,
2013-01-16 07:31:00,54.5,42.6,30.20,WNW,293,10.3,16.8,64,0.00,,,0.00,WUHU216HW,2013-01-16 04:31:00,
2013-01-16 07:36:00,54.7,42.8,30.20,NW,315,16.3,16.8,64,0.00,,,0.00,WUHU216HW,2013-01-16 04:36:00,
2013-01-16 07:41:00,54.7,42.8,30.20,WNW,293,11.6,16.3,64,0.00,,,0.00,WUHU216HW,2013-01-16 04:41:00,
2013-01-16 07:46:00,55.1,43.1,30.20,West,270,11.6,16.8,64,0.00,,,0.00,WUHU216HW,2013-01-16 04:46:00,
2013-01-16 07:51:00,55.1,43.1,30.20,NW,315,10.1,16.8,64,0.00,,,0.00,WUHU216HW,2013-01-16 04:51:00,
2013-01-16 07:56:00,55.3,43.3,30.20,West,270,13.0,16.3,64,0.00,,,0.00,WUHU216HW,2013-01-16 04:56:00,
2013-01-16 08:00:00,55.4,43.4,30.20,WNW,293,10.1,15.9,64,0.00,,,0.00,WUHU216HW,2013-01-16 05:00:00,
2013-01-16 08:01:00,55.4,43.4,30.20,West,270,15.2,15.9,64,0.00,,,0.00,WUHU216HW,2013-01-16 05:01:00,
2013-01-16 08:02:00,55.4,43.4,30.20,WNW,293,13.6,15.9,64,0.00,,,0.00,WUHU216HW,2013-01-16 05:02:00,
2013-01-16 08:03:00,55.4,43.4,30.20,WNW,293,10.5,15.7,64,0.00,,,0.00,WUHU216HW,2013-01-16 05:03:00,
2013-01-16 08:08:00,55.8,43.7,30.20,NW,315,12.1,18.6,64,0.00,,,0.00,WUHU216HW,2013-01-16 05:08:00,
2013-01-16 08:13:00,56.0,43.9,30.21,NNW,338,10.5,18.6,64,0.00,,,0.00,WUHU216HW,2013-01-16 05:13:00,
2013-01-16 08:18:00,56.2,44.1,30.21,West,270,9.6,17.4,64,0.00,,,0.00,WUHU216HW,2013-01-16 05:18:00,
2013-01-16 08:23:00,56.3,43.9,30.21,NW,315,11.2,17.4,63,0.00,,,0.00,WUHU216HW,2013-01-16 05:23:00,
2013-01-16 08:28:00,56.5,44.5,30.21,WNW,293,10.5,17.4,64,0.00,,,0.00,WUHU216HW,2013-01-16 05:28:00,
2013-01-16 08:33:00,56.5,44.0,30.21,NW,315,12.5,17.4,63,0.00,,,0.00,WUHU216HW,2013-01-16 05:33:00,
2013-01-16 08:38:00,56.7,44.2,30.21,West,270,17.2,17.4,63,0.00,,,0.00,WUHU216HW,2013-01-16 05:38:00,
2013-01-16 08:43:00,56.9,44.8,30.21,NW,315,11.0,17.4,64,0.00,,,0.00,WUHU216HW,2013-01-16 05:43:00,
2013-01-16 08:48:00,57.1,44.6,30.21,NW,315,14.8,17.2,63,0.00,,,0.00,WUHU216HW,2013-01-16 05:48:00,
2013-01-16 08:53:00,57.4,44.9,30.21,WSW,248,9.2,15.0,63,0.00,,,0.00,WUHU216HW,2013-01-16 05:53:00,
2013-01-16 08:58:00,57.6,45.1,30.22,WNW,293,12.1,15.0,63,0.00,,,0.00,WUHU216HW,2013-01-16 05:58:00,
2013-01-16 09:03:00,57.8,45.3,30.22,NW,315,15.7,16.3,63,0.00,,,0.00,WUHU216HW,2013-01-16 06:03:00,
2013-01-16 09:08:00,58.0,45.5,30.22,WNW,293,13.6,17.4,63,0.00,,,0.00,WUHU216HW,2013-01-16 06:08:00,
2013-01-16 09:13:00,58.0,45.5,30.22,West,270,10.1,17.4,63,0.00,,,0.00,WUHU216HW,2013-01-16 06:13:00,
2013-01-16 09:18:00,58.3,45.4,30.22,NW,315,16.6,18.6,62,0.00,,,0.00,WUHU216HW,2013-01-16 06:18:00,
2013-01-16 09:23:00,58.7,45.7,30.22,NNW,338,11.9,18.6,62,0.00,,,0.00,WUHU216HW,2013-01-16 06:23:00,
2013-01-16 09:28:00,58.7,45.7,30.22,NW,315,11.0,17.2,62,0.00,,,0.00,WUHU216HW,2013-01-16 06:28:00,
2013-01-16 09:33:00,59.0,46.0,30.22,NW,315,18.6,20.1,62,0.00,,,0.00,WUHU216HW,2013-01-16 06:33:00,
2013-01-16 09:38:00,59.2,46.2,30.22,WNW,293,19.2,20.1,62,0.00,,,0.00,WUHU216HW,2013-01-16 06:38:00,
2013-01-16 09:43:00,59.4,46.4,30.21,NNW,338,10.5,20.1,62,0.00,,,0.00,WUHU216HW,2013-01-16 06:43:00,
2013-01-16 09:48:00,59.4,46.4,30.21,West,270,8.5,20.1,62,0.00,,,0.00,WUHU216HW,2013-01-16 06:48:00,
2013-01-16 09:53:00,59.8,46.7,30.21,NW,315,9.8,19.0,62,0.00,,,0.00,WUHU216HW,2013-01-16 06:53:00,
2013-01-16 09:58:00,60.1,46.7,30.21,NNE,23,7.2,18.6,61,0.00,,,0.00,WUHU216HW,2013-01-16 06:58:00,
2013-01-16 10:03:00,60.3,46.4,30.21,West,270,12.1,18.3,60,0.00,,,0.00,WUHU216HW,2013-01-16 07:03:00,
2013-01-16 10:08:00,60.3,46.4,30.21,NW,315,10.3,18.3,60,0.00,,,0.00,WUHU216HW,2013-01-16 07:08:00,
2013-01-16 10:13:00,60.5,46.2,30.20,West,270,16.8,16.8,59,0.00,,,0.00,WUHU216HW,2013-01-16 07:13:00,
2013-01-16 10:18:00,60.5,46.2,30.20,NW,315,14.5,17.4,59,0.00,,,0.00,WUHU216HW,2013-01-16 07:18:00,
2013-01-16 10:23:00,60.7,46.4,30.20,West,270,10.1,17.9,59,0.00,,,0.00,WUHU216HW,2013-01-16 07:23:00,
2013-01-16 10:28:00,60.8,46.5,30.20,West,270,14.1,19.9,59,0.00,,,0.00,WUHU216HW,2013-01-16 07:28:00,
2013-01-16 10:33:00,60.8,46.5,30.19,West,270,14.5,19.9,59,0.00,,,0.00,WUHU216HW,2013-01-16 07:33:00,
2013-01-16 10:38:00,61.0,46.6,30.19,WNW,293,12.8,17.2,59,0.00,,,0.00,WUHU216HW,2013-01-16 07:38:00,
2013-01-16 10:43:00,61.2,46.4,30.19,WNW,293,11.4,19.2,58,0.00,,,0.00,WUHU216HW,2013-01-16 07:43:00,
2013-01-16 10:48:00,61.4,46.5,30.19,West,270,9.4,19.2,58,0.00,,,0.00,WUHU216HW,2013-01-16 07:48:00,
2013-01-16 10:53:00,61.6,46.2,30.18,NNW,338,14.8,19.5,57,0.00,,,0.00,WUHU216HW,2013-01-16 07:53:00,
2013-01-16 10:58:00,61.6,46.2,30.19,WNW,293,17.7,19.5,57,0.00,,,0.00,WUHU216HW,2013-01-16 07:58:00,
2013-01-16 11:03:00,61.9,46.5,30.18,NNW,338,15.7,17.7,57,0.00,,,0.00,WUHU216HW,2013-01-16 08:03:00,
2013-01-16 11:08:00,61.9,46.0,30.18,NW,315,12.8,17.7,56,0.00,,,0.00,WUHU216HW,2013-01-16 08:08:00,
2013-01-16 11:13:00,62.1,46.2,30.17,NW,315,17.9,17.9,56,0.00,,,0.00,WUHU216HW,2013-01-16 08:13:00,
2013-01-16 11:18:00,62.3,46.4,30.17,WSW,248,9.8,18.1,56,0.00,,,0.00,WUHU216HW,2013-01-16 08:18:00,
2013-01-16 11:23:00,62.6,46.2,30.17,NW,315,15.2,18.1,55,0.00,,,0.00,WUHU216HW,2013-01-16 08:23:00,
2013-01-16 11:28:00,62.6,46.2,30.17,NNW,338,12.8,20.1,55,0.00,,,0.00,WUHU216HW,2013-01-16 08:28:00,
2013-01-16 11:33:00,62.6,46.2,30.16,NW,315,14.8,20.1,55,0.00,,,0.00,WUHU216HW,2013-01-16 08:33:00,
2013-01-16 11:38:00,63.0,46.0,30.16,West,270,14.3,17.9,54,0.00,,,0.00,WUHU216HW,2013-01-16 08:38:00,
2013-01-16 11:43:00,63.4,46.4,30.16,West,270,14.8,17.4,54,0.00,,,0.00,WUHU216HW,2013-01-16 08:43:00,
2013-01-16 11:48:00,63.2,46.2,30.15,WNW,293,12.5,17.4,54,0.00,,,0.00,WUHU216HW,2013-01-16 08:48:00,
2013-01-16 11:53:00,63.7,45.7,30.15,WNW,293,9.8,15.4,52,0.00,,,0.00,WUHU216HW,2013-01-16 08:53:00,
2013-01-16 11:58:00,63.5,45.0,30.15,NW,315,14.3,15.0,51,0.00,,,0.00,WUHU216HW,2013-01-16 08:58:00,
2013-01-16 12:03:00,63.4,44.4,30.15,SW,225,11.2,16.6,50,0.00,,,0.00,WUHU216HW,2013-01-16 09:03:00,
2013-01-16 12:08:00,63.7,44.7,30.15,WNW,293,15.0,16.8,50,0.00,,,0.00,WUHU216HW,2013-01-16 09:08:00,
2013-01-16 12:13:00,63.7,45.7,30.14,North,0,11.9,16.8,52,0.00,,,0.00,WUHU216HW,2013-01-16 09:13:00,
2013-01-16 12:18:00,63.7,44.7,30.14,WNW,293,15.7,16.3,50,0.00,,,0.00,WUHU216HW,2013-01-16 09:18:00,
2013-01-16 12:23:00,63.9,45.4,30.14,NNW,338,8.5,16.3,51,0.00,,,0.00,WUHU216HW,2013-01-16 09:23:00,
2013-01-16 12:28:00,64.4,45.8,30.14,NNW,338,16.3,16.3,51,0.00,,,0.00,WUHU216HW,2013-01-16 09:28:00,
2013-01-16 12:33:00,64.4,44.8,30.14,NW,315,14.3,18.8,49,0.00,,,0.00,WUHU216HW,2013-01-16 09:33:00,
2013-01-16 12:38:00,64.6,44.4,30.14,WNW,293,10.5,18.8,48,0.00,,,0.00,WUHU216HW,2013-01-16 09:38:00,
2013-01-16 12:43:00,64.4,44.8,30.13,NW,315,9.2,16.3,49,0.00,,,0.00,WUHU216HW,2013-01-16 09:43:00,
2013-01-16 12:48:00,64.4,44.8,30.14,NNW,338,14.8,19.0,49,0.00,,,0.00,WUHU216HW,2013-01-16 09:48:00,
2013-01-16 12:53:00,64.4,44.8,30.14,NW,315,10.5,19.0,49,0.00,,,0.00,WUHU216HW,2013-01-16 09:53:00,
2013-01-16 12:58:00,64.8,44.6,30.14,NW,315,7.4,18.1,48,0.00,,,0.00,WUHU216HW,2013-01-16 09:58:00,
2013-01-16 13:03:00,64.8,45.2,30.13,NNW,338,9.8,18.1,49,0.00,,,0.00,WUHU216HW,2013-01-16 10:03:00,
2013-01-16 13:08:00,64.8,45.2,30.13,NNW,338,11.4,18.6,49,0.00,,,0.00,WUHU216HW,2013-01-16 10:08:00,
2013-01-16 13:13:00,65.0,45.9,30.13,North,0,11.4,18.6,50,0.00,,,0.00,WUHU216HW,2013-01-16 10:13:00,
2013-01-16 13:18:00,65.0,44.7,30.13,NW,315,15.2,18.6,48,0.00,,,0.00,WUHU216HW,2013-01-16 10:18:00,
2013-01-16 13:23:00,65.0,45.4,30.13,NW,315,14.3,18.6,49,0.00,,,0.00,WUHU216HW,2013-01-16 10:23:00,
2013-01-16 13:28:00,65.2,45.6,30.13,NW,315,9.2,17.9,49,0.00,,,0.00,WUHU216HW,2013-01-16 10:28:00,
2013-01-16 13:33:00,65.5,45.8,30.13,NW,315,18.6,19.7,49,0.00,,,0.00,WUHU216HW,2013-01-16 10:33:00,
2013-01-16 13:38:00,65.5,45.3,30.13,NNW,338,10.3,19.7,48,0.00,,,0.00,WUHU216HW,2013-01-16 10:38:00,
2013-01-16 13:43:00,65.5,45.3,30.14,NW,315,6.3,18.6,48,0.00,,,0.00,WUHU216HW,2013-01-16 10:43:00,
2013-01-16 13:48:00,65.5,44.6,30.14,NW,315,15.9,19.7,47,0.00,,,0.00,WUHU216HW,2013-01-16 10:48:00,
2013-01-16 13:54:00,65.5,44.6,30.13,WNW,293,9.2,19.7,47,0.00,,,0.00,WUHU216HW,2013-01-16 10:54:00,
2013-01-16 13:59:00,65.7,44.3,30.14,North,0,16.3,18.8,46,0.00,,,0.00,WUHU216HW,2013-01-16 10:59:00,
2013-01-16 14:04:00,65.7,45.5,30.14,NW,315,11.4,17.9,48,0.00,,,0.00,WUHU216HW,2013-01-16 11:04:00,
2013-01-16 14:09:00,65.7,44.8,30.14,NNW,338,14.8,18.3,47,0.00,,,0.00,WUHU216HW,2013-01-16 11:09:00,
2013-01-16 14:14:00,65.7,45.5,30.14,NNW,338,8.9,18.3,48,0.00,,,0.00,WUHU216HW,2013-01-16 11:14:00,
2013-01-16 14:19:00,65.7,45.5,30.14,NNE,23,10.3,14.8,48,0.00,,,0.00,WUHU216HW,2013-01-16 11:19:00,
2013-01-16 14:24:00,65.2,44.9,30.14,WNW,293,13.9,20.6,48,0.00,,,0.00,WUHU216HW,2013-01-16 11:24:00,
2013-01-16 14:29:00,65.7,45.5,30.14,NW,315,12.1,20.6,48,0.00,,,0.00,WUHU216HW,2013-01-16 11:29:00,
2013-01-16 14:34:00,65.7,46.0,30.14,WNW,293,12.8,17.9,49,0.00,,,0.00,WUHU216HW,2013-01-16 11:34:00,
2013-01-16 14:39:00,65.3,45.1,30.14,WNW,293,18.8,18.8,48,0.00,,,0.00,WUHU216HW,2013-01-16 11:39:00,
2013-01-16 14:44:00,65.3,45.7,30.14,NNW,338,12.1,18.8,49,0.00,,,0.00,WUHU216HW,2013-01-16 11:44:00,
2013-01-16 14:49:00,65.2,44.9,30.14,WNW,293,9.6,18.8,48,0.00,,,0.00,WUHU216HW,2013-01-16 11:49:00,
2013-01-16 14:54:00,65.5,45.8,30.14,West,270,8.3,16.1,49,0.00,,,0.00,WUHU216HW,2013-01-16 11:54:00,
2013-01-16 14:59:00,65.3,46.3,30.14,WNW,293,14.8,15.9,50,0.00,,,0.00,WUHU216HW,2013-01-16 11:59:00,
2013-01-16 15:04:00,65.2,46.1,30.14,NW,315,10.5,15.9,50,0.00,,,0.00,WUHU216HW,2013-01-16 12:04:00,
2013-01-16 15:09:00,65.3,46.7,30.15,NNW,338,11.4,19.2,51,0.00,,,0.00,WUHU216HW,2013-01-16 12:09:00,
2013-01-16 15:14:00,65.2,46.5,30.14,NW,315,11.4,19.2,51,0.00,,,0.00,WUHU216HW,2013-01-16 12:14:00,
2013-01-16 15:19:00,65.2,47.1,30.14,WNW,293,10.1,17.9,52,0.00,,,0.00,WUHU216HW,2013-01-16 12:19:00,
2013-01-16 15:24:00,65.2,47.1,30.14,NW,315,8.1,17.9,52,0.00,,,0.00,WUHU216HW,2013-01-16 12:24:00,
2013-01-16 15:29:00,65.3,46.7,30.15,NW,315,9.2,16.6,51,0.00,,,0.00,WUHU216HW,2013-01-16 12:29:00,
2013-01-16 15:34:00,65.2,46.5,30.15,NNW,338,6.0,16.6,51,0.00,,,0.00,WUHU216HW,2013-01-16 12:34:00,
2013-01-16 15:39:00,65.3,46.7,30.15,WNW,293,5.6,16.1,51,0.00,,,0.00,WUHU216HW,2013-01-16 12:39:00,
2013-01-16 15:44:00,65.2,46.5,30.15,North,0,10.5,14.3,51,0.00,,,0.00,WUHU216HW,2013-01-16 12:44:00,
2013-01-16 15:49:00,65.2,46.5,30.15,WNW,293,12.8,12.8,51,0.00,,,0.00,WUHU216HW,2013-01-16 12:49:00,
2013-01-16 15:54:00,64.6,47.0,30.15,NNW,338,11.4,13.6,53,0.00,,,0.00,WUHU216HW,2013-01-16 12:54:00,
2013-01-16 15:59:00,64.6,46.5,30.16,NNW,338,10.7,15.2,52,0.00,,,0.00,WUHU216HW,2013-01-16 12:59:00,
2013-01-16 16:04:00,64.3,46.6,30.16,NNW,338,16.3,16.3,53,0.00,,,0.00,WUHU216HW,2013-01-16 13:04:00,
2013-01-16 16:09:00,64.1,47.0,30.16,NW,315,11.6,16.3,54,0.00,,,0.00,WUHU216HW,2013-01-16 13:09:00,
2013-01-16 16:14:00,63.9,47.4,30.16,NW,315,12.1,17.0,55,0.00,,,0.00,WUHU216HW,2013-01-16 13:14:00,
2013-01-16 16:19:00,63.7,47.6,30.16,ENE,68,11.4,17.0,56,0.00,,,0.00,WUHU216HW,2013-01-16 13:19:00,
2013-01-16 16:24:00,63.7,47.2,30.16,NW,315,12.8,15.0,55,0.00,,,0.00,WUHU216HW,2013-01-16 13:24:00,
2013-01-16 16:29:00,63.7,46.2,30.16,NW,315,9.4,16.8,53,0.00,,,0.00,WUHU216HW,2013-01-16 13:29:00,
2013-01-16 16:34:00,63.7,47.2,30.17,North,0,10.1,16.8,55,0.00,,,0.00,WUHU216HW,2013-01-16 13:34:00,
2013-01-16 16:39:00,63.5,47.4,30.17,WNW,293,8.9,16.1,56,0.00,,,0.00,WUHU216HW,2013-01-16 13:39:00,
2013-01-16 16:44:00,63.2,47.6,30.17,NW,315,16.6,16.6,57,0.00,,,0.00,WUHU216HW,2013-01-16 13:44:00,
2013-01-16 16:49:00,63.0,48.4,30.17,NW,315,10.5,16.6,59,0.00,,,0.00,WUHU216HW,2013-01-16 13:49:00,
2013-01-16 16:54:00,63.0,48.4,30.17,NW,315,15.0,16.6,59,0.00,,,0.00,WUHU216HW,2013-01-16 13:54:00,
2013-01-16 16:59:00,62.8,48.8,30.17,WNW,293,12.3,15.0,60,0.00,,,0.00,WUHU216HW,2013-01-16 13:59:00,
2013-01-16 17:04:00,62.6,49.1,30.17,NW,315,9.2,15.0,61,0.00,,,0.00,WUHU216HW,2013-01-16 14:04:00,
2013-01-16 17:09:00,62.5,49.2,30.18,NNW,338,11.4,14.8,62,0.00,,,0.00,WUHU216HW,2013-01-16 14:09:00,
2013-01-16 17:14:00,62.3,49.5,30.18,NNW,338,14.5,17.2,63,0.00,,,0.00,WUHU216HW,2013-01-16 14:14:00,
2013-01-16 17:19:00,62.1,49.3,30.18,WNW,293,15.2,17.2,63,0.00,,,0.00,WUHU216HW,2013-01-16 14:19:00,
2013-01-16 17:24:00,62.1,49.8,30.18,NNW,338,8.5,16.3,64,0.00,,,0.00,WUHU216HW,2013-01-16 14:24:00,
2013-01-16 17:29:00,62.1,49.8,30.18,NNW,338,10.3,15.4,64,0.00,,,0.00,WUHU216HW,2013-01-16 14:29:00,
2013-01-16 17:34:00,61.9,50.1,30.19,NW,315,8.9,15.4,65,0.00,,,0.00,WUHU216HW,2013-01-16 14:34:00,
2013-01-16 17:39:00,61.9,50.1,30.18,NW,315,11.2,14.8,65,0.00,,,0.00,WUHU216HW,2013-01-16 14:39:00,
2013-01-16 17:44:00,61.7,50.3,30.19,NW,315,8.9,17.0,66,0.00,,,0.00,WUHU216HW,2013-01-16 14:44:00,
2013-01-16 17:49:00,61.6,50.1,30.19,NW,315,9.8,17.0,66,0.00,,,0.00,WUHU216HW,2013-01-16 14:49:00,
2013-01-16 17:54:00,61.6,50.1,30.19,WNW,293,13.4,14.5,66,0.00,,,0.00,WUHU216HW,2013-01-16 14:54:00,
2013-01-16 17:59:00,61.4,50.4,30.19,NW,315,9.8,14.3,67,0.00,,,0.00,WUHU216HW,2013-01-16 14:59:00,
2013-01-16 18:04:00,61.2,50.2,30.19,NW,315,13.2,14.3,67,0.00,,,0.00,WUHU216HW,2013-01-16 15:04:00,
2013-01-16 18:09:00,61.2,50.6,30.19,WNW,293,12.3,13.9,68,0.00,,,0.00,WUHU216HW,2013-01-16 15:09:00,
2013-01-16 18:14:00,60.8,50.3,30.19,WNW,293,7.4,17.2,68,0.00,,,0.00,WUHU216HW,2013-01-16 15:14:00,
2013-01-16 18:19:00,60.8,50.7,30.20,WNW,293,8.9,17.2,69,0.00,,,0.00,WUHU216HW,2013-01-16 15:19:00,
2013-01-16 18:24:00,60.7,50.5,30.20,NW,315,13.9,15.0,69,0.00,,,0.00,WUHU216HW,2013-01-16 15:24:00,
2013-01-16 18:29:00,60.7,50.5,30.20,WNW,293,9.8,15.0,69,0.00,,,0.00,WUHU216HW,2013-01-16 15:29:00,
2013-01-16 18:34:00,60.5,50.8,30.20,North,0,10.3,15.0,70,0.00,,,0.00,WUHU216HW,2013-01-16 15:34:00,
2013-01-16 18:39:00,60.5,50.8,30.20,NW,315,11.4,13.4,70,0.00,,,0.00,WUHU216HW,2013-01-16 15:39:00,
2013-01-16 18:44:00,60.5,50.8,30.20,NW,315,10.5,14.8,70,0.00,,,0.00,WUHU216HW,2013-01-16 15:44:00,
2013-01-16 18:49:00,60.3,50.9,30.20,NW,315,8.7,14.8,71,0.00,,,0.00,WUHU216HW,2013-01-16 15:49:00,
2013-01-16 18:54:00,60.3,50.9,30.20,NW,315,9.6,14.5,71,0.00,,,0.00,WUHU216HW,2013-01-16 15:54:00,
2013-01-16 18:59:00,60.3,50.9,30.20,NW,315,9.8,14.3,71,0.00,,,0.00,WUHU216HW,2013-01-16 15:59:00,
2013-01-16 19:04:00,60.1,51.1,30.20,NW,315,12.1,14.5,72,0.00,,,0.00,WUHU216HW,2013-01-16 16:04:00,
2013-01-16 19:09:00,60.1,51.1,30.20,NW,315,11.0,14.5,72,0.00,,,0.00,WUHU216HW,2013-01-16 16:09:00,
2013-01-16 19:14:00,60.1,51.1,30.20,WNW,293,8.9,13.2,72,0.00,,,0.00,WUHU216HW,2013-01-16 16:14:00,
2013-01-16 19:19:00,59.9,51.3,30.20,West,270,8.1,11.2,73,0.00,,,0.00,WUHU216HW,2013-01-16 16:19:00,
2013-01-16 19:24:00,59.8,51.1,30.20,NNW,338,7.4,10.1,73,0.00,,,0.00,WUHU216HW,2013-01-16 16:24:00,
2013-01-16 19:29:00,59.8,51.1,30.20,WNW,293,7.6,10.7,73,0.00,,,0.00,WUHU216HW,2013-01-16 16:29:00,
2013-01-16 19:34:00,59.8,51.1,30.20,NW,315,9.2,12.1,73,0.00,,,0.00,WUHU216HW,2013-01-16 16:34:00,
2013-01-16 19:39:00,59.6,50.9,30.20,NW,315,9.8,12.1,73,0.00,,,0.00,WUHU216HW,2013-01-16 16:39:00,
2013-01-16 19:44:00,59.6,50.9,30.20,West,270,10.5,12.1,73,0.00,,,0.00,WUHU216HW,2013-01-16 16:44:00,
2013-01-16 19:49:00,59.4,51.1,30.20,NW,315,9.6,12.3,74,0.00,,,0.00,WUHU216HW,2013-01-16 16:49:00,
2013-01-16 19:54:00,59.4,51.1,30.20,WNW,293,8.3,12.3,74,0.00,,,0.00,WUHU216HW,2013-01-16 16:54:00,
2013-01-16 19:59:00,59.4,51.1,30.20,NNW,338,4.9,10.5,74,0.00,,,0.00,WUHU216HW,2013-01-16 16:59:00,
2013-01-16 20:04:00,59.2,50.9,30.20,NNE,23,6.9,9.8,74,0.00,,,0.00,WUHU216HW,2013-01-16 17:04:00,
2013-01-16 20:09:00,59.2,50.9,30.20,NW,315,8.5,9.8,74,0.00,,,0.00,WUHU216HW,2013-01-16 17:09:00,
2013-01-16 20:14:00,59.2,50.9,30.20,NW,315,7.4,10.5,74,0.00,,,0.00,WUHU216HW,2013-01-16 17:14:00,
2013-01-16 20:19:00,59.0,50.8,30.20,NW,315,8.3,11.4,74,0.00,,,0.00,WUHU216HW,2013-01-16 17:19:00,
2013-01-16 20:24:00,59.0,50.8,30.20,WNW,293,5.4,11.4,74,0.00,,,0.00,WUHU216HW,2013-01-16 17:24:00,
2013-01-16 20:29:00,59.0,51.1,30.20,NW,315,6.3,9.2,75,0.00,,,0.00,WUHU216HW,2013-01-16 17:29:00,
2013-01-16 20:34:00,58.9,50.9,30.20,NW,315,7.6,9.2,75,0.00,,,0.00,WUHU216HW,2013-01-16 17:34:00,
2013-01-16 20:39:00,58.9,50.9,30.20,NW,315,6.7,10.1,75,0.00,,,0.00,WUHU216HW,2013-01-16 17:39:00,
2013-01-16 20:44:00,58.9,50.9,30.20,NW,315,6.9,10.1,75,0.00,,,0.00,WUHU216HW,2013-01-16 17:44:00,
2013-01-16 20:49:00,58.7,50.8,30.20,NNW,338,7.2,9.2,75,0.00,,,0.00,WUHU216HW,2013-01-16 17:49:00,
2013-01-16 20:54:00,58.7,50.8,30.20,NW,315,8.5,10.1,75,0.00,,,0.00,WUHU216HW,2013-01-16 17:54:00,
2013-01-16 20:59:00,58.7,50.8,30.20,NNW,338,7.8,10.1,75,0.00,,,0.00,WUHU216HW,2013-01-16 17:59:00,
2013-01-16 21:04:00,58.7,50.8,30.20,NW,315,6.9,9.2,75,0.00,,,0.00,WUHU216HW,2013-01-16 18:04:00,
2013-01-16 21:09:00,58.5,50.6,30.20,North,0,6.5,8.9,75,0.00,,,0.00,WUHU216HW,2013-01-16 18:09:00,
2013-01-16 21:14:00,58.5,50.6,30.20,West,270,6.9,8.9,75,0.00,,,0.00,WUHU216HW,2013-01-16 18:14:00,
2013-01-16 21:19:00,58.5,50.6,30.20,NW,315,7.4,9.6,75,0.00,,,0.00,WUHU216HW,2013-01-16 18:19:00,
2013-01-16 21:24:00,58.5,50.6,30.20,NW,315,6.7,9.6,75,0.00,,,0.00,WUHU216HW,2013-01-16 18:24:00,
2013-01-16 21:29:00,58.3,50.4,30.20,WNW,293,8.1,9.4,75,0.00,,,0.00,WUHU216HW,2013-01-16 18:29:00,
2013-01-16 21:34:00,58.5,50.6,30.20,NW,315,6.7,10.3,75,0.00,,,0.00,WUHU216HW,2013-01-16 18:34:00,
2013-01-16 21:40:00,58.5,50.6,30.20,WNW,293,7.6,10.3,75,0.00,,,0.00,WUHU216HW,2013-01-16 18:40:00,
2013-01-16 21:44:00,58.5,50.6,30.20,NW,315,9.2,9.6,75,0.00,,,0.00,WUHU216HW,2013-01-16 18:44:00,
2013-01-16 21:49:00,58.5,50.2,30.20,NNW,338,9.2,11.4,74,0.00,,,0.00,WUHU216HW,2013-01-16 18:49:00,
2013-01-16 21:55:00,58.7,50.4,30.20,WNW,293,9.8,13.4,74,0.00,,,0.00,WUHU216HW,2013-01-16 18:55:00,
2013-01-16 22:00:00,58.7,50.4,30.20,NW,315,7.6,13.4,74,0.00,,,0.00,WUHU216HW,2013-01-16 19:00:00,
2013-01-16 22:04:00,58.5,50.2,30.20,NW,315,6.5,9.8,74,0.00,,,0.00,WUHU216HW,2013-01-16 19:04:00,
2013-01-16 22:10:00,58.5,50.2,30.20,West,270,5.8,9.8,74,0.00,,,0.00,WUHU216HW,2013-01-16 19:10:00,
2013-01-16 22:14:00,58.3,50.0,30.20,WNW,293,6.5,10.1,74,0.00,,,0.00,WUHU216HW,2013-01-16 19:14:00,
2013-01-16 22:19:00,58.3,50.0,30.20,NW,315,6.9,10.1,74,0.00,,,0.00,WUHU216HW,2013-01-16 19:19:00,
2013-01-16 22:25:00,58.3,50.0,30.20,NNW,338,7.8,9.8,74,0.00,,,0.00,WUHU216HW,2013-01-16 19:25:00,
2013-01-16 22:30:00,58.3,50.0,30.20,NW,315,9.2,10.7,74,0.00,,,0.00,WUHU216HW,2013-01-16 19:30:00,
2013-01-16 22:35:00,58.1,49.9,30.20,WNW,293,6.9,11.2,74,0.00,,,0.00,WUHU216HW,2013-01-16 19:35:00,
2013-01-16 22:40:00,58.1,49.9,30.20,West,270,8.3,11.2,74,0.00,,,0.00,WUHU216HW,2013-01-16 19:40:00,
2013-01-16 22:45:00,58.0,49.7,30.20,NNW,338,4.9,10.3,74,0.00,,,0.00,WUHU216HW,2013-01-16 19:45:00,
2013-01-16 22:50:00,58.0,49.7,30.20,NW,315,7.8,10.1,74,0.00,,,0.00,WUHU216HW,2013-01-16 19:50:00,
2013-01-16 22:55:00,58.0,49.7,30.20,WNW,293,8.3,9.6,74,0.00,,,0.00,WUHU216HW,2013-01-16 19:55:00,
2013-01-16 23:00:00,57.8,49.5,30.20,North,0,7.8,9.4,74,0.00,,,0.00,WUHU216HW,2013-01-16 20:00:00,
2013-01-16 23:05:00,57.8,49.5,30.21,NNW,338,5.8,10.1,74,0.00,,,0.00,WUHU216HW,2013-01-16 20:05:00,
2013-01-16 23:10:00,57.8,49.5,30.20,NW,315,8.9,10.1,74,0.00,,,0.00,WUHU216HW,2013-01-16 20:10:00,
2013-01-16 23:15:00,57.6,49.3,30.20,WNW,293,7.6,9.8,74,0.00,,,0.00,WUHU216HW,2013-01-16 20:15:00,
2013-01-16 23:20:00,57.6,49.3,30.20,NW,315,8.5,10.5,74,0.00,,,0.00,WUHU216HW,2013-01-16 20:20:00,
2013-01-16 23:25:00,57.6,49.3,30.20,WNW,293,6.7,10.5,74,0.00,,,0.00,WUHU216HW,2013-01-16 20:25:00,
2013-01-16 23:30:00,57.6,49.3,30.21,West,270,5.4,9.8,74,0.00,,,0.00,WUHU216HW,2013-01-16 20:30:00,
2013-01-16 23:35:00,57.4,49.1,30.20,WNW,293,5.4,9.8,74,0.00,,,0.00,WUHU216HW,2013-01-16 20:35:00,
2013-01-16 23:40:00,57.2,49.3,30.20,NW,315,6.0,8.5,75,0.00,,,0.00,WUHU216HW,2013-01-16 20:40:00,
2013-01-16 23:45:00,57.2,49.3,30.20,WNW,293,6.5,8.5,75,0.00,,,0.00,WUHU216HW,2013-01-16 20:45:00,
2013-01-16 23:50:00,57.2,49.3,30.21,WNW,293,5.8,8.1,75,0.00,,,0.00,WUHU216HW,2013-01-16 20:50:00,
2013-01-16 23:55:00,57.1,49.5,30.21,NW,315,5.8,8.9,76,0.00,,,0.00,WUHU216HW,2013-01-16 20:55:00,